| time (UTC) | temp C | wind direction | speed KPH | gust KPH | rain 1hr cm | rain 24hr cm | rain mn cm | humidity % | barometer mb |
| 20260508073509 | 16 | 242 | 1.6 | 8.0 | 0.00 | 0.00 | 0.00 | 74 | 1030.5 |
| 20260508073027 | 17 | 240 | 0.0 | 14.5 | 0.00 | 0.00 | 0.00 | 73 | 1030.6 |
| 20260508072508 | 17 | 236 | 1.6 | 14.5 | 0.00 | 0.00 | 0.00 | 73 | 1030.5 |
| 20260508072013 | 17 | 0 | 1.6 | 12.9 | 0.00 | 0.00 | 0.00 | 73 | 1030.5 |
| 20260508071528 | 17 | 257 | 6.4 | 12.9 | 0.00 | 0.00 | 0.00 | 73 | 1030.5 |
| 20260508071008 | 17 | 360 | 3.2 | 11.3 | 0.00 | 0.00 | 0.00 | 73 | 1030.5 |
| 20260508070508 | 17 | 262 | 0.0 | 6.4 | 0.00 | 0.00 | 0.00 | 73 | 1030.4 |
| 20260508070027 | 17 | 360 | 1.6 | 11.3 | 0.00 | 0.00 | 0.00 | 73 | 1030.4 |
| 20260508065509 | 17 | 265 | 1.6 | 11.3 | 0.00 | 0.00 | 0.00 | 73 | 1030.5 |
| 20260508065009 | 17 | 221 | 1.6 | 11.3 | 0.00 | 0.00 | 0.00 | 73 | 1030.4 |
| 20260508064530 | 17 | 0 | 3.2 | 12.9 | 0.00 | 0.00 | 0.00 | 72 | 1030.5 |
| 20260508064008 | 17 | 240 | 1.6 | 12.9 | 0.00 | 0.00 | 0.00 | 72 | 1030.5 |
| 20260508063514 | 17 | 259 | 6.4 | 12.9 | 0.00 | 0.00 | 0.00 | 72 | 1030.5 |
| 20260508063027 | 17 | 360 | 4.8 | 12.9 | 0.00 | 0.00 | 0.00 | 71 | 1030.5 |
| 20260508062508 | 17 | 259 | 1.6 | 8.0 | 0.00 | 0.00 | 0.00 | 71 | 1030.4 |
| 20260508062014 | 17 | 244 | 1.6 | 8.0 | 0.00 | 0.00 | 0.00 | 71 | 1030.4 |
| 20260508061529 | 17 | 248 | 1.6 | 14.5 | 0.00 | 0.00 | 0.00 | 71 | 1030.5 |
| 20260508061009 | 17 | 360 | 3.2 | 16.1 | 0.00 | 0.00 | 0.00 | 70 | 1030.4 |
| 20260508060514 | 18 | 252 | 3.2 | 16.1 | 0.00 | 0.00 | 0.00 | 70 | 1030.5 |
| 20260508060027 | 18 | 214 | 3.2 | 12.9 | 0.00 | 0.00 | 0.00 | 70 | 1030.4 |
| 20260508055507 | 18 | 0 | 1.6 | 11.3 | 0.00 | 0.00 | 0.00 | 70 | 1030.3 |
| 20260508055008 | 18 | 288 | 4.8 | 11.3 | 0.00 | 0.00 | 0.00 | 70 | 1030.4 |
| 20260508054526 | 18 | 242 | 3.2 | 12.9 | 0.00 | 0.00 | 0.00 | 70 | 1030.3 |
| 20260508054008 | 18 | 0 | 3.2 | 12.9 | 0.00 | 0.00 | 0.00 | 70 | 1030.4 |
| 20260508053515 | 18 | 360 | 4.8 | 20.9 | 0.00 | 0.00 | 0.00 | 70 | 1030.4 |
| 20260508053030 | 18 | 315 | 3.2 | 20.9 | 0.00 | 0.00 | 0.00 | 71 | 1030.3 |
| 20260508052509 | 18 | 275 | 4.8 | 20.9 | 0.00 | 0.00 | 0.00 | 71 | 1030.1 |
| 20260508052009 | 18 | 360 | 1.6 | 16.1 | 0.00 | 0.00 | 0.00 | 71 | 1030.3 |
| 20260508051534 | 18 | 301 | 4.8 | 16.1 | 0.00 | 0.00 | 0.00 | 70 | 1030.3 |
| 20260508051011 | 18 | 228 | 3.2 | 14.5 | 0.00 | 0.00 | 0.00 | 70 | 1030.4 |
| 20260508050507 | 18 | 263 | 3.2 | 14.5 | 0.00 | 0.00 | 0.00 | 71 | 1030.4 |
| 20260508050026 | 18 | 281 | 3.2 | 16.1 | 0.00 | 0.00 | 0.00 | 72 | 1030.4 |
| 20260508045509 | 18 | 230 | 4.8 | 16.1 | 0.00 | 0.00 | 0.00 | 74 | 1030.3 |
| 20260508045009 | 17 | 360 | 3.2 | 14.5 | 0.00 | 0.00 | 0.00 | 75 | 1030.4 |
| 20260508044528 | 17 | 255 | 3.2 | 12.9 | 0.00 | 0.00 | 0.00 | 76 | 1030.4 |
| 20260508044012 | 17 | 0 | 1.6 | 16.1 | 0.00 | 0.00 | 0.00 | 77 | 1030.6 |
| 20260508043508 | 17 | 261 | 4.8 | 16.1 | 0.00 | 0.00 | 0.00 | 78 | 1030.6 |
| 20260508043029 | 17 | 253 | 4.8 | 16.1 | 0.00 | 0.00 | 0.00 | 79 | 1030.7 |
| 20260508042510 | 17 | 232 | 4.8 | 16.1 | 0.00 | 0.00 | 0.00 | 80 | 1030.6 |
| 20260508042011 | 17 | 276 | 3.2 | 16.1 | 0.00 | 0.00 | 0.00 | 81 | 1030.5 |
| 20260508041529 | 17 | 269 | 4.8 | 16.1 | 0.00 | 0.00 | 0.00 | 82 | 1030.7 |
| 20260508041008 | 17 | 267 | 6.4 | 14.5 | 0.00 | 0.00 | 0.00 | 83 | 1030.8 |
| 20260508040508 | 17 | 260 | 1.6 | 12.9 | 0.00 | 0.00 | 0.00 | 84 | 1030.8 |
| 20260508040030 | 16 | 259 | 1.6 | 12.9 | 0.00 | 0.00 | 0.00 | 84 | 1030.8 |
| 20260508035514 | 16 | 250 | 3.2 | 12.9 | 0.00 | 0.00 | 0.00 | 84 | 1030.9 |
| 20260508035009 | 16 | 225 | 1.6 | 11.3 | 0.00 | 0.00 | 0.00 | 83 | 1031.1 |
| 20260508034532 | 16 | 0 | 3.2 | 12.9 | 0.00 | 0.00 | 0.00 | 83 | 1031.1 |
| 20260508034008 | 16 | 244 | 3.2 | 14.5 | 0.00 | 0.00 | 0.00 | 83 | 1031.2 |
| 20260508033508 | 16 | 204 | 3.2 | 14.5 | 0.00 | 0.00 | 0.00 | 83 | 1031.3 |
| 20260508033027 | 16 | 254 | 6.4 | 14.5 | 0.00 | 0.00 | 0.00 | 83 | 1031.4 |
| 20260508032509 | 16 | 206 | 3.2 | 14.5 | 0.00 | 0.00 | 0.00 | 83 | 1031.3 |
| 20260508032011 | 16 | 261 | 6.4 | 14.5 | 0.00 | 0.00 | 0.00 | 83 | 1031.3 |
| 20260508031528 | 16 | 225 | 1.6 | 12.9 | 0.00 | 0.00 | 0.00 | 83 | 1031.4 |
| 20260508031008 | 16 | 205 | 4.8 | 12.9 | 0.00 | 0.00 | 0.00 | 83 | 1031.5 |
| 20260508030508 | 16 | 253 | 3.2 | 9.7 | 0.00 | 0.00 | 0.00 | 83 | 1031.7 |
| 20260508030030 | 16 | 253 | 1.6 | 11.3 | 0.00 | 0.00 | 0.00 | 83 | 1031.6 |
| 20260508025510 | 16 | 252 | 1.6 | 11.3 | 0.00 | 0.00 | 0.00 | 83 | 1031.7 |
| 20260508025009 | 16 | 252 | 3.2 | 9.7 | 0.00 | 0.00 | 0.00 | 83 | 1031.8 |
| 20260508024528 | 16 | 225 | 1.6 | 9.7 | 0.00 | 0.00 | 0.00 | 83 | 1031.8 |
| 20260508024007 | 16 | 214 | 1.6 | 11.3 | 0.00 | 0.00 | 0.00 | 82 | 1032.1 |
| 20260508023511 | 16 | 211 | 4.8 | 11.3 | 0.00 | 0.00 | 0.00 | 82 | 1032.2 |
| 20260508023027 | 16 | 269 | 3.2 | 12.9 | 0.00 | 0.00 | 0.00 | 82 | 1032.2 |
| 20260508022507 | 16 | 292 | 6.4 | 12.9 | 0.00 | 0.00 | 0.00 | 82 | 1032.2 |
| 20260508022010 | 16 | 265 | 3.2 | 12.9 | 0.00 | 0.00 | 0.00 | 83 | 1032.1 |
| 20260508021529 | 16 | 266 | 3.2 | 12.9 | 0.00 | 0.00 | 0.00 | 83 | 1032.3 |
| 20260508021010 | 16 | 259 | 3.2 | 11.3 | 0.00 | 0.00 | 0.00 | 83 | 1032.3 |
| 20260508020511 | 16 | 215 | 3.2 | 16.1 | 0.00 | 0.00 | 0.00 | 83 | 1032.5 |
| 20260508020036 | 16 | 190 | 4.8 | 16.1 | 0.00 | 0.00 | 0.00 | 83 | 1032.5 |
| 20260508015512 | 16 | 0 | 1.6 | 6.4 | 0.00 | 0.00 | 0.00 | 83 | 1032.5 |
| 20260508015011 | 16 | 234 | 1.6 | 9.7 | 0.00 | 0.00 | 0.00 | 82 | 1032.6 |
| 20260508014530 | 16 | 0 | 1.6 | 12.9 | 0.00 | 0.00 | 0.00 | 82 | 1032.7 |
| 20260508014009 | 16 | 226 | 4.8 | 12.9 | 0.00 | 0.00 | 0.00 | 82 | 1032.8 |
| 20260508013514 | 16 | 246 | 1.6 | 11.3 | 0.00 | 0.00 | 0.00 | 82 | 1032.6 |
| 20260508013028 | 15 | 246 | 1.6 | 11.3 | 0.00 | 0.00 | 0.00 | 82 | 1032.8 |
| 20260508012512 | 15 | 0 | 3.2 | 8.0 | 0.00 | 0.00 | 0.00 | 81 | 1032.8 |
| 20260508012010 | 15 | 243 | 1.6 | 11.3 | 0.00 | 0.00 | 0.00 | 81 | 1032.9 |
| 20260508011528 | 15 | 243 | 1.6 | 11.3 | 0.00 | 0.00 | 0.00 | 81 | 1033.0 |
| 20260508011011 | 15 | 243 | 3.2 | 11.3 | 0.00 | 0.00 | 0.00 | 81 | 1033.1 |
| 20260508010511 | 15 | 246 | 1.6 | 6.4 | 0.00 | 0.00 | 0.00 | 80 | 1033.1 |
| 20260508010033 | 15 | 246 | 1.6 | 6.4 | 0.00 | 0.00 | 0.00 | 80 | 1033.1 |
| 20260508005512 | 15 | 245 | 0.0 | 4.8 | 0.00 | 0.00 | 0.00 | 80 | 1032.9 |
| 20260508005012 | 15 | 0 | 0.0 | 4.8 | 0.00 | 0.00 | 0.00 | 79 | 1032.8 |
| 20260508004529 | 15 | 0 | 0.0 | 4.8 | 0.00 | 0.00 | 0.00 | 79 | 1032.9 |
| 20260508004011 | 15 | 0 | 0.0 | 8.0 | 0.00 | 0.00 | 0.00 | 78 | 1032.8 |
| 20260508003510 | 15 | 0 | 0.0 | 8.0 | 0.00 | 0.00 | 0.00 | 78 | 1032.9 |
| 20260508003029 | 15 | 245 | 1.6 | 8.0 | 0.00 | 0.00 | 0.00 | 77 | 1032.9 |
| 20260508002512 | 15 | 0 | 0.0 | 8.0 | 0.00 | 0.00 | 0.00 | 77 | 1032.7 |
| 20260508002011 | 15 | 0 | 0.0 | 11.3 | 0.00 | 0.00 | 0.00 | 77 | 1032.7 |
| 20260508001528 | 15 | 0 | 1.6 | 11.3 | 0.00 | 0.00 | 0.00 | 76 | 1032.7 |
| 20260508001011 | 15 | 0 | 1.6 | 11.3 | 0.00 | 0.00 | 0.00 | 76 | 1032.6 |
| 20260508000512 | 15 | 0 | 0.0 | 4.8 | 0.00 | 0.00 | 0.00 | 76 | 1032.5 |
| 20260508000029 | 15 | 0 | 0.0 | 9.7 | 0.00 | 0.00 | 0.00 | 76 | 1032.5 |
| 20260507235517 | 15 | 0 | 0.0 | 14.5 | 0.00 | 0.00 | 0.00 | 76 | 1032.7 |
| 20260507235009 | 15 | 266 | 0.0 | 14.5 | 0.00 | 0.00 | 0.00 | 76 | 1032.7 |
| 20260507234538 | 15 | 256 | 1.6 | 14.5 | 0.00 | 0.00 | 0.00 | 76 | 1032.6 |
| 20260507234008 | 15 | 257 | 3.2 | 14.5 | 0.00 | 0.00 | 0.00 | 76 | 1032.5 |
| 20260507233511 | 15 | 0 | 3.2 | 14.5 | 0.00 | 0.00 | 0.00 | 76 | 1032.5 |
| 20260507233032 | 15 | 253 | 1.6 | 11.3 | 0.00 | 0.00 | 0.00 | 76 | 1032.5 |
| 20260507232514 | 15 | 257 | 0.0 | 9.7 | 0.00 | 0.00 | 0.00 | 75 | 1032.5 |
| 20260507232011 | 15 | 261 | 0.0 | 12.9 | 0.00 | 0.00 | 0.00 | 75 | 1032.4 |
| 20260507231528 | 15 | 261 | 1.6 | 12.9 | 0.00 | 0.00 | 0.00 | 75 | 1032.4 |
| 20260507231010 | 15 | 0 | 3.2 | 11.3 | 0.00 | 0.00 | 0.00 | 75 | 1032.3 |
| 20260507230512 | 15 | 0 | 0.0 | 4.8 | 0.00 | 0.00 | 0.00 | 75 | 1032.3 |
| 20260507230030 | 15 | 259 | 0.0 | 9.7 | 0.00 | 0.00 | 0.00 | 75 | 1032.3 |
| 20260507225512 | 15 | 0 | 1.6 | 9.7 | 0.00 | 0.00 | 0.00 | 75 | 1032.2 |
| 20260507225012 | 15 | 0 | 0.0 | 6.4 | 0.00 | 0.00 | 0.00 | 75 | 1032.2 |
| 20260507224533 | 15 | 259 | 1.6 | 9.7 | 0.00 | 0.00 | 0.00 | 75 | 1032.2 |
| 20260507224011 | 15 | 257 | 1.6 | 9.7 | 0.00 | 0.00 | 0.00 | 76 | 1032.0 |
| 20260507223511 | 14 | 257 | 1.6 | 6.4 | 0.00 | 0.00 | 0.00 | 76 | 1032.1 |
| 20260507223027 | 14 | 258 | 1.6 | 12.9 | 0.00 | 0.00 | 0.00 | 76 | 1032.0 |
| 20260507222512 | 14 | 0 | 0.0 | 12.9 | 0.00 | 0.00 | 0.00 | 76 | 1031.9 |
| 20260507222012 | 14 | 259 | 3.2 | 12.9 | 0.00 | 0.00 | 0.00 | 77 | 1031.8 |
| 20260507221529 | 14 | 0 | 0.0 | 12.9 | 0.00 | 0.00 | 0.00 | 77 | 1031.8 |
| 20260507221011 | 14 | 0 | 1.6 | 12.9 | 0.00 | 0.00 | 0.00 | 77 | 1031.8 |
| 20260507220510 | 13 | 263 | 3.2 | 12.9 | 0.00 | 0.00 | 0.00 | 78 | 1031.7 |
| 20260507220030 | 13 | 254 | 1.6 | 16.1 | 0.00 | 0.00 | 0.00 | 78 | 1031.6 |
| 20260507215508 | 13 | 254 | 3.2 | 16.1 | 0.00 | 0.00 | 0.00 | 78 | 1031.6 |
| 20260507215012 | 13 | 213 | 0.0 | 6.4 | 0.00 | 0.00 | 0.00 | 78 | 1031.4 |
| 20260507214530 | 13 | 213 | 0.0 | 6.4 | 0.00 | 0.00 | 0.00 | 78 | 1031.4 |
| 20260507214009 | 13 | 0 | 0.0 | 0.0 | 0.00 | 0.00 | 0.00 | 78 | 1031.4 |
| 20260507213514 | 13 | 0 | 0.0 | 0.0 | 0.00 | 0.00 | 0.00 | 78 | 1031.4 |
| 20260507213035 | 13 | 0 | 0.0 | 0.0 | 0.00 | 0.00 | 0.00 | 78 | 1031.4 |
| 20260507212511 | 13 | 0 | 0.0 | 0.0 | 0.00 | 0.00 | 0.00 | 78 | 1031.5 |
| 20260507212009 | 13 | 0 | 0.0 | 0.0 | 0.00 | 0.00 | 0.00 | 78 | 1031.4 |
| 20260507211528 | 13 | 0 | 0.0 | 0.0 | 0.00 | 0.00 | 0.00 | 78 | 1031.4 |
| 20260507211008 | 13 | 0 | 0.0 | 0.0 | 0.00 | 0.00 | 0.00 | 78 | 1031.3 |
| 20260507210518 | 13 | 0 | 0.0 | 0.0 | 0.00 | 0.00 | 0.00 | 78 | 1031.3 |
| 20260507210030 | 13 | 0 | 0.0 | 0.0 | 0.00 | 0.00 | 0.00 | 78 | 1031.2 |
| 20260507205509 | 13 | 0 | 0.0 | 0.0 | 0.00 | 0.00 | 0.00 | 78 | 1031.3 |
| 20260507205012 | 13 | 0 | 0.0 | 0.0 | 0.00 | 0.00 | 0.00 | 78 | 1031.3 |
| 20260507204527 | 13 | 0 | 0.0 | 0.0 | 0.00 | 0.00 | 0.00 | 78 | 1031.3 |
| 20260507204012 | 13 | 0 | 0.0 | 0.0 | 0.00 | 0.00 | 0.00 | 78 | 1031.3 |
| 20260507203512 | 13 | 0 | 0.0 | 0.0 | 0.00 | 0.00 | 0.00 | 78 | 1031.3 |
| 20260507203028 | 13 | 0 | 0.0 | 0.0 | 0.00 | 0.00 | 0.00 | 78 | 1031.3 |
| 20260507202508 | 13 | 0 | 0.0 | 0.0 | 0.00 | 0.00 | 0.00 | 78 | 1031.4 |
| 20260507202013 | 13 | 0 | 0.0 | 0.0 | 0.00 | 0.00 | 0.00 | 78 | 1031.3 |
| 20260507201528 | 13 | 0 | 0.0 | 0.0 | 0.00 | 0.00 | 0.00 | 78 | 1031.2 |
| 20260507201015 | 13 | 0 | 0.0 | 0.0 | 0.00 | 0.00 | 0.00 | 78 | 1031.2 |
| 20260507200510 | 13 | 0 | 0.0 | 0.0 | 0.00 | 0.00 | 0.00 | 78 | 1031.2 |
| 20260507200030 | 13 | 0 | 0.0 | 0.0 | 0.00 | 0.00 | 0.00 | 77 | 1031.2 |
| 20260507195512 | 13 | 0 | 0.0 | 1.6 | 0.00 | 0.00 | 0.00 | 77 | 1031.3 |
| 20260507195011 | 13 | 0 | 0.0 | 1.6 | 0.00 | 0.00 | 0.00 | 77 | 1031.3 |
| 20260507194532 | 13 | 0 | 0.0 | 3.2 | 0.00 | 0.00 | 0.00 | 77 | 1031.3 |
| 20260507194011 | 13 | 0 | 0.0 | 3.2 | 0.00 | 0.00 | 0.00 | 77 | 1031.3 |
| 20260507193513 | 13 | 0 | 0.0 | 0.0 | 0.00 | 0.00 | 0.00 | 77 | 1031.4 |
| 20260507193029 | 13 | 0 | 0.0 | 0.0 | 0.00 | 0.00 | 0.00 | 77 | 1031.4 |
| 20260507192509 | 13 | 0 | 0.0 | 0.0 | 0.00 | 0.00 | 0.00 | 77 | 1031.3 |
| 20260507192010 | 13 | 0 | 0.0 | 0.0 | 0.00 | 0.00 | 0.00 | 77 | 1031.3 |
| 20260507191528 | 13 | 0 | 0.0 | 0.0 | 0.00 | 0.00 | 0.00 | 77 | 1031.3 |
| 20260507191009 | 13 | 0 | 0.0 | 0.0 | 0.00 | 0.00 | 0.00 | 77 | 1031.1 |
| 20260507190509 | 13 | 0 | 0.0 | 0.0 | 0.00 | 0.00 | 0.00 | 77 | 1031.1 |
| 20260507190027 | 13 | 0 | 0.0 | 0.0 | 0.00 | 0.00 | 0.00 | 77 | 1031.1 |
| 20260507185509 | 13 | 0 | 0.0 | 0.0 | 0.00 | 0.00 | 0.00 | 77 | 1031.1 |
| 20260507185009 | 13 | 0 | 0.0 | 1.6 | 0.00 | 0.00 | 0.00 | 77 | 1031.1 |
| 20260507184528 | 13 | 0 | 0.0 | 1.6 | 0.00 | 0.00 | 0.00 | 77 | 1031.0 |
| 20260507184010 | 13 | 0 | 0.0 | 1.6 | 0.00 | 0.00 | 0.00 | 77 | 1031.0 |
| 20260507183511 | 13 | 0 | 0.0 | 1.6 | 0.00 | 0.00 | 0.00 | 77 | 1031.0 |
| 20260507183028 | 13 | 0 | 0.0 | 3.2 | 0.00 | 0.00 | 0.00 | 77 | 1031.2 |
| 20260507182510 | 13 | 0 | 0.0 | 3.2 | 0.00 | 0.00 | 0.00 | 77 | 1031.1 |
| 20260507182016 | 13 | 210 | 0.0 | 4.8 | 0.00 | 0.00 | 0.00 | 76 | 1031.1 |
| 20260507181529 | 13 | 0 | 0.0 | 4.8 | 0.00 | 0.00 | 0.00 | 76 | 1031.0 |
| 20260507181009 | 13 | 0 | 0.0 | 4.8 | 0.00 | 0.00 | 0.00 | 76 | 1031.1 |
| 20260507180511 | 13 | 0 | 0.0 | 6.4 | 0.00 | 0.00 | 0.00 | 76 | 1031.2 |
| 20260507180026 | 13 | 0 | 0.0 | 6.4 | 0.00 | 0.00 | 0.00 | 76 | 1031.2 |
| 20260507175509 | 13 | 0 | 0.0 | 6.4 | 0.00 | 0.00 | 0.00 | 75 | 1031.2 |
| 20260507175011 | 13 | 0 | 0.0 | 6.4 | 0.00 | 0.00 | 0.00 | 75 | 1031.2 |
| 20260507174530 | 13 | 213 | 0.0 | 4.8 | 0.00 | 0.00 | 0.00 | 75 | 1031.3 |
| 20260507174010 | 13 | 0 | 0.0 | 3.2 | 0.00 | 0.00 | 0.00 | 75 | 1031.4 |
| 20260507173509 | 13 | 0 | 0.0 | 3.2 | 0.00 | 0.00 | 0.00 | 75 | 1031.3 |
| 20260507173040 | 13 | 0 | 0.0 | 0.0 | 0.00 | 0.00 | 0.00 | 75 | 1031.2 |
| 20260507172511 | 13 | 0 | 0.0 | 0.0 | 0.00 | 0.00 | 0.00 | 74 | 1031.2 |
| 20260507172012 | 13 | 0 | 0.0 | 0.0 | 0.00 | 0.00 | 0.00 | 74 | 1031.1 |
| 20260507171530 | 13 | 0 | 0.0 | 0.0 | 0.00 | 0.00 | 0.00 | 74 | 1031.0 |
| 20260507171012 | 13 | 0 | 0.0 | 0.0 | 0.00 | 0.00 | 0.00 | 74 | 1031.0 |
| 20260507170510 | 13 | 0 | 0.0 | 3.2 | 0.00 | 0.00 | 0.00 | 74 | 1031.1 |
| 20260507170029 | 13 | 0 | 0.0 | 3.2 | 0.00 | 0.00 | 0.00 | 74 | 1031.0 |
| 20260507165511 | 13 | 0 | 0.0 | 3.2 | 0.00 | 0.00 | 0.00 | 74 | 1031.3 |
| 20260507165008 | 14 | 0 | 0.0 | 3.2 | 0.00 | 0.00 | 0.00 | 74 | 1031.3 |
| 20260507164528 | 14 | 0 | 0.0 | 3.2 | 0.00 | 0.00 | 0.00 | 74 | 1031.3 |
| 20260507164011 | 14 | 0 | 0.0 | 3.2 | 0.00 | 0.00 | 0.00 | 74 | 1031.4 |
| 20260507163508 | 14 | 0 | 0.0 | 4.8 | 0.00 | 0.00 | 0.00 | 74 | 1031.5 |
| 20260507163030 | 14 | 214 | 0.0 | 6.4 | 0.00 | 0.00 | 0.00 | 74 | 1031.5 |
| 20260507162510 | 14 | 0 | 0.0 | 9.7 | 0.00 | 0.00 | 0.00 | 74 | 1031.5 |
| 20260507162010 | 14 | 0 | 1.6 | 9.7 | 0.00 | 0.00 | 0.00 | 74 | 1031.5 |
| 20260507161529 | 14 | 211 | 1.6 | 11.3 | 0.00 | 0.00 | 0.00 | 74 | 1031.6 |
| 20260507161009 | 14 | 214 | 3.2 | 11.3 | 0.00 | 0.00 | 0.00 | 74 | 1031.6 |
| 20260507160508 | 13 | 0 | 1.6 | 6.4 | 0.00 | 0.00 | 0.00 | 73 | 1031.6 |
| 20260507160030 | 13 | 0 | 0.0 | 4.8 | 0.00 | 0.00 | 0.00 | 73 | 1031.5 |
| 20260507155508 | 13 | 0 | 0.0 | 4.8 | 0.00 | 0.00 | 0.00 | 73 | 1031.5 |
| 20260507155013 | 13 | 0 | 0.0 | 3.2 | 0.00 | 0.00 | 0.00 | 73 | 1031.5 |
| 20260507154529 | 13 | 0 | 0.0 | 3.2 | 0.00 | 0.00 | 0.00 | 73 | 1031.6 |
| 20260507154012 | 13 | 0 | 0.0 | 11.3 | 0.00 | 0.00 | 0.00 | 74 | 1031.7 |
| 20260507153510 | 13 | 0 | 0.0 | 11.3 | 0.00 | 0.00 | 0.00 | 74 | 1031.7 |
| 20260507153027 | 13 | 268 | 0.0 | 9.7 | 0.00 | 0.00 | 0.00 | 73 | 1031.7 |
| 20260507152513 | 13 | 0 | 0.0 | 9.7 | 0.00 | 0.00 | 0.00 | 73 | 1031.8 |
| 20260507152008 | 13 | 269 | 1.6 | 9.7 | 0.00 | 0.00 | 0.00 | 74 | 1031.8 |
| 20260507151528 | 13 | 273 | 1.6 | 6.4 | 0.00 | 0.00 | 0.00 | 73 | 1031.8 |
| 20260507151008 | 13 | 275 | 1.6 | 6.4 | 0.00 | 0.00 | 0.00 | 73 | 1031.8 |
| 20260507150514 | 13 | 0 | 0.0 | 0.0 | 0.00 | 0.00 | 0.00 | 73 | 1031.8 |
| 20260507150030 | 13 | 0 | 0.0 | 0.0 | 0.00 | 0.00 | 0.00 | 73 | 1031.8 |
| 20260507145509 | 13 | 0 | 0.0 | 0.0 | 0.00 | 0.00 | 0.00 | 73 | 1031.8 |
| 20260507145008 | 13 | 0 | 0.0 | 0.0 | 0.00 | 0.00 | 0.00 | 73 | 1031.8 |
| 20260507144544 | 13 | 0 | 0.0 | 0.0 | 0.00 | 0.00 | 0.00 | 73 | 1031.7 |
| 20260507144009 | 13 | 0 | 0.0 | 0.0 | 0.00 | 0.00 | 0.00 | 73 | 1031.8 |
| 20260507143510 | 13 | 0 | 0.0 | 0.0 | 0.00 | 0.00 | 0.00 | 73 | 1031.7 |
| 20260507143027 | 13 | 0 | 0.0 | 0.0 | 0.00 | 0.00 | 0.00 | 73 | 1031.7 |
| 20260507142508 | 13 | 0 | 0.0 | 0.0 | 0.00 | 0.00 | 0.00 | 73 | 1031.8 |
| 20260507142017 | 13 | 0 | 0.0 | 0.0 | 0.00 | 0.00 | 0.00 | 73 | 1031.7 |
| 20260507141530 | 13 | 0 | 0.0 | 0.0 | 0.00 | 0.00 | 0.00 | 73 | 1031.7 |
| 20260507141008 | 13 | 0 | 0.0 | 0.0 | 0.00 | 0.00 | 0.00 | 73 | 1031.8 |
| 20260507140510 | 13 | 0 | 0.0 | 0.0 | 0.00 | 0.00 | 0.00 | 73 | 1031.9 |
| 20260507140030 | 13 | 0 | 0.0 | 0.0 | 0.00 | 0.00 | 0.00 | 73 | 1031.9 |
| 20260507135508 | 13 | 0 | 0.0 | 0.0 | 0.00 | 0.00 | 0.00 | 73 | 1031.8 |
| 20260507135011 | 13 | 0 | 0.0 | 0.0 | 0.00 | 0.00 | 0.00 | 73 | 1031.9 |
| 20260507134530 | 13 | 0 | 0.0 | 0.0 | 0.00 | 0.00 | 0.00 | 73 | 1032.0 |
| 20260507134010 | 13 | 0 | 0.0 | 0.0 | 0.00 | 0.00 | 0.00 | 73 | 1032.1 |
| 20260507133509 | 13 | 0 | 0.0 | 0.0 | 0.00 | 0.00 | 0.00 | 72 | 1032.0 |
| 20260507133031 | 13 | 0 | 0.0 | 0.0 | 0.00 | 0.00 | 0.00 | 72 | 1032.0 |
| 20260507132511 | 13 | 0 | 0.0 | 0.0 | 0.00 | 0.00 | 0.00 | 72 | 1032.1 |
| 20260507132010 | 13 | 0 | 0.0 | 0.0 | 0.00 | 0.00 | 0.00 | 72 | 1032.0 |
| 20260507131528 | 13 | 0 | 0.0 | 0.0 | 0.00 | 0.00 | 0.00 | 72 | 1031.9 |
| 20260507131014 | 13 | 0 | 0.0 | 3.2 | 0.00 | 0.00 | 0.00 | 72 | 1031.9 |
| 20260507130510 | 13 | 0 | 0.0 | 3.2 | 0.00 | 0.00 | 0.00 | 72 | 1031.9 |
| 20260507130029 | 13 | 277 | 0.0 | 3.2 | 0.00 | 0.00 | 0.00 | 72 | 1031.8 |
| 20260507125512 | 13 | 0 | 0.0 | 3.2 | 0.00 | 0.00 | 0.00 | 72 | 1031.9 |
| 20260507125008 | 13 | 0 | 0.0 | 1.6 | 0.00 | 0.00 | 0.00 | 72 | 1031.9 |
| 20260507124527 | 13 | 0 | 0.0 | 1.6 | 0.00 | 0.00 | 0.00 | 72 | 1032.1 |
| 20260507124013 | 13 | 0 | 0.0 | 0.0 | 0.00 | 0.00 | 0.00 | 72 | 1032.2 |
| 20260507123511 | 13 | 0 | 0.0 | 3.2 | 0.00 | 0.00 | 0.00 | 71 | 1032.1 |
| 20260507123026 | 13 | 0 | 0.0 | 3.2 | 0.00 | 0.00 | 0.00 | 71 | 1032.3 |
| 20260507122511 | 13 | 277 | 0.0 | 3.2 | 0.00 | 0.00 | 0.00 | 71 | 1032.3 |
| 20260507122013 | 13 | 0 | 0.0 | 3.2 | 0.00 | 0.00 | 0.00 | 71 | 1032.3 |
| 20260507121526 | 13 | 0 | 0.0 | 3.2 | 0.00 | 0.00 | 0.00 | 71 | 1032.5 |
| 20260507121010 | 13 | 0 | 0.0 | 3.2 | 0.00 | 0.00 | 0.00 | 71 | 1032.4 |
| 20260507120511 | 13 | 277 | 0.0 | 3.2 | 0.00 | 0.00 | 0.00 | 71 | 1032.3 |
| 20260507120030 | 13 | 0 | 0.0 | 3.2 | 0.00 | 0.00 | 0.00 | 71 | 1032.3 |
| 20260507115508 | 13 | 0 | 0.0 | 8.0 | 0.00 | 0.00 | 0.00 | 70 | 1032.2 |
| 20260507115015 | 13 | 278 | 1.6 | 12.9 | 0.00 | 0.00 | 0.00 | 70 | 1032.1 |
| 20260507114527 | 13 | 209 | 3.2 | 12.9 | 0.00 | 0.00 | 0.00 | 70 | 1032.1 |
| 20260507114011 | 13 | 277 | 3.2 | 12.9 | 0.00 | 0.00 | 0.00 | 69 | 1032.3 |
| 20260507113508 | 13 | 217 | 3.2 | 11.3 | 0.00 | 0.00 | 0.00 | 68 | 1032.3 |
| 20260507113028 | 13 | 218 | 4.8 | 11.3 | 0.00 | 0.00 | 0.00 | 68 | 1032.1 |
| 20260507112513 | 13 | 0 | 0.0 | 6.4 | 0.00 | 0.00 | 0.00 | 66 | 1032.1 |
| 20260507112013 | 13 | 223 | 0.0 | 3.2 | 0.00 | 0.00 | 0.00 | 66 | 1032.0 |
| 20260507111539 | 13 | 0 | 0.0 | 1.6 | 0.00 | 0.00 | 0.00 | 65 | 1032.0 |
| 20260507111011 | 13 | 0 | 0.0 | 1.6 | 0.00 | 0.00 | 0.00 | 65 | 1032.1 |
| 20260507110512 | 13 | 0 | 0.0 | 1.6 | 0.00 | 0.00 | 0.00 | 65 | 1032.1 |
| 20260507110026 | 13 | 0 | 0.0 | 3.2 | 0.00 | 0.00 | 0.00 | 65 | 1032.2 |
| 20260507105511 | 13 | 0 | 0.0 | 3.2 | 0.00 | 0.00 | 0.00 | 65 | 1032.0 |
| 20260507105012 | 13 | 0 | 0.0 | 1.6 | 0.00 | 0.00 | 0.00 | 65 | 1032.1 |
| 20260507104528 | 13 | 0 | 0.0 | 1.6 | 0.00 | 0.00 | 0.00 | 65 | 1032.1 |
| 20260507104012 | 13 | 0 | 0.0 | 4.8 | 0.00 | 0.00 | 0.00 | 65 | 1032.1 |
| 20260507103513 | 13 | 0 | 0.0 | 6.4 | 0.00 | 0.00 | 0.00 | 65 | 1032.1 |
| 20260507103035 | 13 | 223 | 0.0 | 8.0 | 0.00 | 0.00 | 0.00 | 65 | 1032.3 |
| 20260507102510 | 13 | 222 | 1.6 | 8.0 | 0.00 | 0.00 | 0.00 | 65 | 1032.1 |
| 20260507102011 | 13 | 221 | 0.0 | 6.4 | 0.00 | 0.00 | 0.00 | 65 | 1032.3 |
| 20260507101537 | 13 | 222 | 1.6 | 6.4 | 0.00 | 0.00 | 0.00 | 65 | 1032.3 |
| 20260507101009 | 13 | 0 | 0.0 | 3.2 | 0.00 | 0.00 | 0.00 | 65 | 1032.3 |
| 20260507100510 | 13 | 0 | 0.0 | 3.2 | 0.00 | 0.00 | 0.00 | 65 | 1032.3 |
| 20260507100035 | 13 | 0 | 0.0 | 1.6 | 0.00 | 0.00 | 0.00 | 65 | 1032.1 |
| 20260507095508 | 13 | 0 | 0.0 | 4.8 | 0.00 | 0.00 | 0.00 | 64 | 1032.1 |
| 20260507095011 | 13 | 0 | 0.0 | 4.8 | 0.00 | 0.00 | 0.00 | 64 | 1032.0 |
| 20260507094539 | 13 | 0 | 0.0 | 1.6 | 0.00 | 0.00 | 0.00 | 64 | 1032.0 |
| 20260507094007 | 13 | 0 | 0.0 | 1.6 | 0.00 | 0.00 | 0.00 | 64 | 1032.1 |
| 20260507093508 | 13 | 0 | 0.0 | 3.2 | 0.00 | 0.00 | 0.00 | 64 | 1032.0 |
| 20260507093034 | 13 | 0 | 0.0 | 4.8 | 0.00 | 0.00 | 0.00 | 64 | 1031.8 |
| 20260507092512 | 13 | 223 | 0.0 | 4.8 | 0.00 | 0.00 | 0.00 | 64 | 1032.0 |
| 20260507092011 | 13 | 223 | 0.0 | 4.8 | 0.00 | 0.00 | 0.00 | 64 | 1031.7 |
| 20260507091529 | 13 | 0 | 0.0 | 6.4 | 0.00 | 0.00 | 0.00 | 64 | 1031.7 |
| 20260507091014 | 13 | 0 | 0.0 | 6.4 | 0.00 | 0.00 | 0.00 | 64 | 1031.7 |
| 20260507090514 | 13 | 223 | 0.0 | 6.4 | 0.00 | 0.00 | 0.00 | 64 | 1031.7 |
| 20260507090034 | 13 | 0 | 0.0 | 6.4 | 0.00 | 0.00 | 0.00 | 64 | 1031.7 |
| 20260507085508 | 13 | 0 | 0.0 | 6.4 | 0.00 | 0.00 | 0.00 | 64 | 1031.6 |
| 20260507085009 | 13 | 225 | 0.0 | 3.2 | 0.00 | 0.00 | 0.00 | 63 | 1031.5 |
| 20260507084534 | 13 | 0 | 0.0 | 4.8 | 0.00 | 0.00 | 0.00 | 63 | 1031.6 |
| 20260507084009 | 13 | 0 | 0.0 | 4.8 | 0.00 | 0.00 | 0.00 | 63 | 1031.4 |
| 20260507083511 | 13 | 0 | 0.0 | 4.8 | 0.00 | 0.00 | 0.00 | 62 | 1031.5 |
| 20260507083026 | 13 | 0 | 0.0 | 3.2 | 0.00 | 0.00 | 0.00 | 62 | 1031.3 |
| 20260507082508 | 14 | 223 | 0.0 | 6.4 | 0.00 | 0.00 | 0.00 | 61 | 1031.2 |
| 20260507082010 | 14 | 0 | 0.0 | 6.4 | 0.00 | 0.00 | 0.00 | 61 | 1031.3 |
| 20260507081527 | 14 | 222 | 0.0 | 6.4 | 0.00 | 0.00 | 0.00 | 61 | 1031.3 |
| 20260507081010 | 14 | 219 | 1.6 | 6.4 | 0.00 | 0.00 | 0.00 | 60 | 1031.4 |
| 20260507080511 | 14 | 221 | 1.6 | 8.0 | 0.00 | 0.00 | 0.00 | 59 | 1031.4 |
| 20260507080029 | 14 | 218 | 1.6 | 8.0 | 0.00 | 0.00 | 0.00 | 59 | 1031.4 |
| 20260507075509 | 15 | 218 | 1.6 | 9.7 | 0.00 | 0.00 | 0.00 | 58 | 1031.4 |
| 20260507075011 | 15 | 217 | 1.6 | 9.7 | 0.00 | 0.00 | 0.00 | 58 | 1031.3 |
| 20260507074528 | 15 | 0 | 1.6 | 9.7 | 0.00 | 0.00 | 0.00 | 58 | 1031.5 |
| 20260507074010 | 15 | 197 | 3.2 | 9.7 | 0.00 | 0.00 | 0.00 | 58 | 1031.5 |